Regional Weather Roundup
Issued by NWS Glasgow, MT

Home | Current Version | Previous Version | Text Only | Print | Product List | Glossary On
Versions: 1 2 3 4 5 6 7 8 9 10 11 12 13 14 15 16 17 18 19 20 21 22 23 24 25 26 27 28 29 30 31 32 33 34 35 36 37 38 39 40 41 42 43 44 45 46 47 48 49
000
ASUS45 KGGW 250915
RWRGGW
HOURLY REGIONAL WEATHER ROUNDUP FOR NORTHEAST MONTANA
NATIONAL WEATHER SERVICE GLASGOW MONTANA
300 AM MDT TUE APR 25 2017

NOTE: "FAIR" INDICATES FEW OR NO CLOUDS BELOW 12,000 FEET WITH NO
SIGNIFICANT WEATHER AND/OR OBSTRUCTIONS TO VISISBILITY.

NORTHEAST MONTANA


CITY           SKY/WX    TMP DP  RH WIND       PRES   REMARKS
GLASGOW        CLOUDY    30  24  78 E14       29.85R
PLENTYWOOD       N/A     29  28  96 E13         N/A
WOLF POINT     CLOUDY    32  26  78 E13       29.86R
JORDAN           N/A     31  26  82 NE13      29.79R
WINNETT          N/A     34  32  92 NE9         N/A
SIDNEY         CLOUDY    31  27  85 NE12      29.84S
GLENDIVE       CLOUDY    29  28  96 NE13      29.79F FOG
MALTA            N/A     32  27  81 E7          N/A

FORT PECK REPORTS


CITY           SKY/WX    TMP DP  RH WIND       PRES   REMARKS
FORT PECK        N/A     30  29  96 NE13        N/A
THE PINES        N/A     31  27  85 NE2         N/A

SOUTHEAST MONTANA


CITY           SKY/WX    TMP DP  RH WIND       PRES   REMARKS
BILLINGS       CLOUDY    38  37  97 NE16G22   29.68R
MILES CITY     CLOUDY    33  28  81 NE20      29.74R
BAKER          CLOUDY    29  26  89 NE14      29.73F
LIVINGSTON     LGT SNOW  34  33  96 E7        29.67R FOG

CENTRAL MONTANA


CITY           SKY/WX    TMP DP  RH WIND       PRES   REMARKS
HAVRE          CLOUDY    34  29  82 E25       29.77R
LEWISTOWN      CLOUDY    35  33  92 E17       29.70S
GREAT FALLS    CLOUDY    41  37  86 NW5       29.72R
CUT BANK       LGT RAIN  37  36  96 NW7       29.73S FOG
HELENA         CLOUDY    43  40  89 NW6       29.70R
BUTTE          CLOUDY    34  32  92 VRB3      29.70S
BOZEMAN        CLOUDY    42  38  85 E5        29.66R

WESTERN MONTANA


CITY           SKY/WX    TMP DP  RH WIND       PRES   REMARKS
MISSOULA       MOCLDY    39  38  96 CALM      29.77R
KALISPELL      NOT AVBL

NORTH DAKOTA


CITY           SKY/WX    TMP DP  RH WIND       PRES   REMARKS
WILLISTON      CLOUDY    31  24  75 NE15      29.86S
DICKINSON      CLOUDY    28  26  92 NE15      29.73F
MINOT          CLOUDY    31  26  82 N12       29.82S
BISMARCK       CLOUDY    32  27  81 N15       29.77R

SOUTHERN SASKATCHEWAN


CITY           SKY/WX    TMP DP  RH WIND       PRES   REMARKS
REGINA         CLOUDY    27  21  80 NE10G17   29.94S
MOOSE JAW      CLOUDY    27  23  86 E8        29.95
ESTEVAN        CLOUDY    28  21  74 NE14      29.89R
SWIFT CURRENT  CLOUDY    27  25  93 E10       29.87R




USA.gov is the U.S. government's official web portal to all federal, state and local government web resources and services.